Regional Weather Roundup
Issued by NWS

Home | Current Version | Previous Version | Text Only | Print | Product List | Glossary On
Versions: 1 2 3 4 5 6 7 8 9 10 11 12 13 14 15 16 17 18 19 20 21 22 23 24 25 26 27 28 29 30 31 32 33 34 35 36 37 38 39 40 41 42 43 44 45 46 47 48 49 50
000
ASUS44 KBMX 010910
RWRAL

ALABAMA REGIONAL WEATHER ROUNDUP
NATIONAL WEATHER SERVICE BIRMINGHAM AL
300 AM CST SUN FEB 01 2015

NOTE: "FAIR" INDICATES FEW OR NO CLOUDS BELOW 12,000 FEET
WITH NO SIGNIFICANT WEATHER AND/OR OBSTRUCTIONS TO VISIBILITY.

THE REMARK "TC" DENOTES TEMPERATURE IN DEGREES CELSIUS.

ALZ001>011-014-016>018-020-011000-
NORTH ALABAMA

CITY           SKY/WX    TMP DP  RH WIND       PRES   REMARKS
MUSCLE SHOALS  CLOUDY    47  24  40 SE7       30.09F
HUNTSVILLE     CLOUDY    46  24  42 CALM      30.13F
DECATUR        CLOUDY    46  23  40 SE7       30.12F
HALEYVILLE       N/A     46  23  40 S7        30.11F
GADSDEN        CLOUDY   N/A N/A N/A CALM      30.17F
$$

ALZ012-013-022-023-030>036-040>044-011000-
WEST CENTRAL ALABAMA

CITY           SKY/WX    TMP DP  RH WIND       PRES   REMARKS
TUSCALOOSA     MOCLDY    50  26  39 VRB7      30.13F
$$

ALZ015-024>027-033>036-040>044-011000-
CENTRAL ALABAMA

CITY           SKY/WX    TMP DP  RH WIND       PRES   REMARKS
BIRMINGHAM     MOCLDY    49  24  37 SE6       30.16F
MONTGOMERY     MOCLDY    41  29  62 E6        30.18F
SHELBY CO ARPT CLOUDY    46  27  47 CALM      30.15F
MAXWELL AFB    MOCLDY    45  28  52 E2        30.17F
GREENVILLE     FAIR      45  29  53 SE3       30.15F
$$

ALZ019-021-028-029-037-038-045>048-011000-
EAST CENTRAL ALABAMA

CITY           SKY/WX    TMP DP  RH WIND       PRES   REMARKS
ANNISTON       CLOUDY    47  25  42 NE5       30.18F
ALEXANDER CITY CLOUDY    49  29  46 CALM      30.19R
AUBURN         CLOUDY    45  25  45 SE8       30.21F
$$

ALZ051>064-011000-
SOUTHWEST ALABAMA

CITY           SKY/WX    TMP DP  RH WIND       PRES   REMARKS
MOBILE         PTCLDY    45  42  89 E3        30.11F
BROOKLEY FIELD PTCLDY    48  45  89 NE5       30.13F
EVERGREEN      PTCLDY    36  35  96 CALM      30.16F
$$

ALZ049-050-065>069-011000-
SOUTHEAST ALABAMA

CITY           SKY/WX    TMP DP  RH WIND       PRES   REMARKS
DOTHAN         PTCLDY    45  35  68 E7        30.22F
OZARK          MOCLDY    46  36  67 E8        30.18F
TROY           PTCLDY    48  32  53 SE7       30.18F
EUFAULA        FAIR      45  35  68 CALM      30.19F
$$


USA.gov is the U.S. government's official web portal to all federal, state and local government web resources and services.